Theta_e
304 303 303 305 305 304 300 301 302 303 303 304 307 305 301 302 303 303 305 304 305 305
302 302 301 302 302 300 301 303 303 301 301 302 302 302 301 299 302 300 301 302 304 304
301 301 300 300 299 300 300 300 300 300 301 300 303 302 299 302 304 304 304 304 303 304
299 300 299 299 299 299 299 300 300 300 300 300 301 301 302 303 304 303 303 304 305 305
298 298 297 298 299 299 299 300 300 300 300 301 302 299 302 303 303 303 302 303 303 303
297 297 297 297 298 299 299 299 300 300 300 301 301 298 302 304 303 302 302 302 302 302
297 297 297 298 298 299 300 299 300 300 301 300 299 298 300 303 302 302 302 303 303 303
298 299 299 299 299 300 300 300 300 300 299 299 299 300 298 302 300 301 301 297 298 299
299 300 299 299 300 299 299 298 299 298 298 296 298 300 301 301 302 301 297 293 293 295
300 300 299 299 299 298 297 297 298 297 296 294 295 299 300 301 303 301 294 292 292 294
300 299 299 298 297 297 296 297 299 302 297 294 296 299 298 301 303 298 298 296 293 294
299 298 297 295 295 295 295 296 296 302 300 299 299 298 297 299 303 300 299 296 294 297
302 297 294 293 293 292 294 294 295 297 300 301 298 298 296 298 302 299 297 295 295 298
299 296 293 292 292 292 292 293 294 294 295 298 298 297 296 296 298 296 296 294 295 297
Wind_Speed
6 4 4 5 5 4 4 4 5 5 6 7 6 5 5 4 4 5 5 8 6 5
4 5 5 6 5 4 4 5 6 6 6 6 6 6 6 4 6 5 5 6 6 5
6 6 5 4 6 6 6 5 6 6 6 7 6 5 6 6 6 6 5 5 6 6
6 6 6 5 6 6 5 6 6 6 6 6 6 5 5 6 7 7 6 7 5 6
6 6 6 6 6 6 7 6 6 6 6 5 5 5 5 6 7 7 6 7 7 6
7 6 7 7 7 6 6 6 6 4 5 4 4 5 4 4 5 5 5 6 6 7
7 7 7 7 6 6 5 5 6 4 4 2 3 4 5 4 5 5 5 5 6 7
7 7 7 6 6 6 6 5 4 2 2 4 4 3 5 4 4 5 5 6 6 6
7 7 7 6 7 6 6 5 3 3 4 6 4 10 10 7 4 4 5 5 6 7
6 6 7 6 6 6 6 3 1 2 5 6 6 13 12 7 3 2 4 6 6 7
5 6 6 6 6 5 3 3 4 4 4 5 6 13 12 5 1 2 4 4 6 6
5 5 5 6 7 6 6 5 4 3 4 4 5 14 13 7 3 1 3 5 6 7
2 3 4 6 6 4 3 5 4 5 6 6 6 11 15 9 2 1 3 5 6 10
2 5 5 4 5 5 5 5 5 5 5 5 6 7 12 11 4 3 3 4 5 6
Wind_Direction
3 341 309 300 309 297 277 285 306 325 312 307 324 321 300 292 298 300 301 298 303 296
332 318 310 308 293 273 297 326 318 311 308 312 301 305 308 290 299 304 291 299 298 302
317 310 305 302 325 326 316 305 305 305 310 309 306 312 335 332 317 318 315 302 301 304
314 316 315 316 307 301 293 288 289 300 312 316 326 349 349 339 330 333 332 338 324 341
315 316 314 304 299 291 286 293 288 302 309 323 356 348 345 343 340 346 357 352 356 355
313 317 311 306 302 304 304 304 318 326 322 334 351 332 331 341 340 338 354 351 346 345
319 316 306 303 305 312 315 325 338 327 313 336 348 329 337 334 339 334 342 339 338 339
314 305 306 318 326 327 345 348 331 349 17 353 346 328 318 308 315 323 338 351 347 334
319 322 329 339 344 348 354 359 29 51 20 0 335 328 322 302 287 320 11 354 344 335
322 340 350 347 0 1 358 353 339 30 22 358 338 343 330 289 244 20 30 9 347 343
341 360 360 359 355 347 350 342 347 8 357 354 340 351 357 353 218 78 30 15 348 336
17 26 14 358 348 352 4 15 12 351 19 351 353 358 357 360 273 135 7 0 347 344
40 81 32 7 16 346 14 12 5 8 0 7 357 359 350 354 11 54 12 354 347 345
26 66 40 34 23 7 12 5 359 2 345 357 4 355 351 353 35 52 12 1 343 347